<?xml version="1.0"?>
<gpx xmlns="http://www.topografix.com/GPX/1/1" xmlns:xsi="http://www.w3.org/2001/XMLSchema-instance" version="1.1" creator="GPX RubyGem 1.0.0 -- http://dougfales.github.io/gpx/" xsi:schemaLocation="http://www.topografix.com/GPX/1/1 http://www.topografix.com/GPX/1/1/gpx.xsd">
  <metadata>
    <name/>
    <time>2026-05-07T11:21:19+00:00</time>
    <bound minlat="90.0" minlon="180.0" maxlat="-90.0" maxlon="-180.0"/>
  </metadata>
  <trk>
    <name/>
    <trkseg>
      <trkpt lat="46.419665" lon="10.558221">
        <time>1970-01-01T00:00:00+00:00</time>
        <ele>2143.0</ele>
      </trkpt>
      <trkpt lat="46.419805" lon="10.562194">
        <time>1970-01-01T00:00:00+00:00</time>
        <ele>2157.0</ele>
      </trkpt>
      <trkpt lat="46.419294" lon="10.562664">
        <time>1970-01-01T00:00:00+00:00</time>
        <ele>2160.0</ele>
      </trkpt>
      <trkpt lat="46.419256" lon="10.563024">
        <time>1970-01-01T00:00:00+00:00</time>
        <ele>2162.0</ele>
      </trkpt>
      <trkpt lat="46.418412" lon="10.562924">
        <time>1970-01-01T00:00:00+00:00</time>
        <ele>2167.0</ele>
      </trkpt>
      <trkpt lat="46.418026" lon="10.564249">
        <time>1970-01-01T00:00:00+00:00</time>
        <ele>2186.0</ele>
      </trkpt>
      <trkpt lat="46.417162" lon="10.565202">
        <time>1970-01-01T00:00:00+00:00</time>
        <ele>2201.0</ele>
      </trkpt>
      <trkpt lat="46.416332" lon="10.569071">
        <time>1970-01-01T00:00:00+00:00</time>
        <ele>2213.0</ele>
      </trkpt>
      <trkpt lat="46.415298" lon="10.572292">
        <time>1970-01-01T00:00:00+00:00</time>
        <ele>2228.0</ele>
      </trkpt>
      <trkpt lat="46.415116" lon="10.574073">
        <time>1970-01-01T00:00:00+00:00</time>
        <ele>2242.0</ele>
      </trkpt>
      <trkpt lat="46.413733" lon="10.576569">
        <time>1970-01-01T00:00:00+00:00</time>
        <ele>2292.0</ele>
      </trkpt>
      <trkpt lat="46.411648" lon="10.577242">
        <time>1970-01-01T00:00:00+00:00</time>
        <ele>2327.0</ele>
      </trkpt>
      <trkpt lat="46.409975" lon="10.577">
        <time>1970-01-01T00:00:00+00:00</time>
        <ele>2362.0</ele>
      </trkpt>
      <trkpt lat="46.408708" lon="10.577265">
        <time>1970-01-01T00:00:00+00:00</time>
        <ele>2389.0</ele>
      </trkpt>
      <trkpt lat="46.408381" lon="10.577514">
        <time>1970-01-01T00:00:00+00:00</time>
        <ele>2394.0</ele>
      </trkpt>
      <trkpt lat="46.40877" lon="10.57768">
        <time>1970-01-01T00:00:00+00:00</time>
        <ele>2379.0</ele>
      </trkpt>
      <trkpt lat="46.408555" lon="10.578282">
        <time>1970-01-01T00:00:00+00:00</time>
        <ele>2379.0</ele>
      </trkpt>
      <trkpt lat="46.407167" lon="10.57947">
        <time>1970-01-01T00:00:00+00:00</time>
        <ele>2416.0</ele>
      </trkpt>
      <trkpt lat="46.406862" lon="10.579906">
        <time>1970-01-01T00:00:00+00:00</time>
        <ele>2428.0</ele>
      </trkpt>
      <trkpt lat="46.406874" lon="10.580398">
        <time>1970-01-01T00:00:00+00:00</time>
        <ele>2435.0</ele>
      </trkpt>
      <trkpt lat="46.406611" lon="10.580423">
        <time>1970-01-01T00:00:00+00:00</time>
        <ele>2448.0</ele>
      </trkpt>
      <trkpt lat="46.406456" lon="10.581072">
        <time>1970-01-01T00:00:00+00:00</time>
        <ele>2464.0</ele>
      </trkpt>
      <trkpt lat="46.405993" lon="10.581429">
        <time>1970-01-01T00:00:00+00:00</time>
        <ele>2478.0</ele>
      </trkpt>
      <trkpt lat="46.405977" lon="10.581731">
        <time>1970-01-01T00:00:00+00:00</time>
        <ele>2482.0</ele>
      </trkpt>
      <trkpt lat="46.404057" lon="10.583505">
        <time>1970-01-01T00:00:00+00:00</time>
        <ele>2513.0</ele>
      </trkpt>
      <trkpt lat="46.401632" lon="10.58445">
        <time>1970-01-01T00:00:00+00:00</time>
        <ele>2553.0</ele>
      </trkpt>
      <trkpt lat="46.400972" lon="10.584428">
        <time>1970-01-01T00:00:00+00:00</time>
        <ele>2565.0</ele>
      </trkpt>
      <trkpt lat="46.399544" lon="10.585382">
        <time>1970-01-01T00:00:00+00:00</time>
        <ele>2594.0</ele>
      </trkpt>
      <trkpt lat="46.398514" lon="10.585504">
        <time>1970-01-01T00:00:00+00:00</time>
        <ele>2613.0</ele>
      </trkpt>
      <trkpt lat="46.397899" lon="10.58618">
        <time>1970-01-01T00:00:00+00:00</time>
        <ele>2618.0</ele>
      </trkpt>
      <trkpt lat="46.397564" lon="10.585956">
        <time>1970-01-01T00:00:00+00:00</time>
        <ele>2624.0</ele>
      </trkpt>
      <trkpt lat="46.396778" lon="10.586432">
        <time>1970-01-01T00:00:00+00:00</time>
        <ele>2637.0</ele>
      </trkpt>
      <trkpt lat="46.393161" lon="10.587377">
        <time>1970-01-01T00:00:00+00:00</time>
        <ele>2692.0</ele>
      </trkpt>
      <trkpt lat="46.392521" lon="10.587858">
        <time>1970-01-01T00:00:00+00:00</time>
        <ele>2704.0</ele>
      </trkpt>
      <trkpt lat="46.391198" lon="10.586797">
        <time>1970-01-01T00:00:00+00:00</time>
        <ele>2714.0</ele>
      </trkpt>
      <trkpt lat="46.390813" lon="10.58559">
        <time>1970-01-01T00:00:00+00:00</time>
        <ele>2729.0</ele>
      </trkpt>
      <trkpt lat="46.389784" lon="10.583765">
        <time>1970-01-01T00:00:00+00:00</time>
        <ele>2784.0</ele>
      </trkpt>
      <trkpt lat="46.389714" lon="10.582655">
        <time>1970-01-01T00:00:00+00:00</time>
        <ele>2806.0</ele>
      </trkpt>
      <trkpt lat="46.389512" lon="10.58269">
        <time>1970-01-01T00:00:00+00:00</time>
        <ele>2814.0</ele>
      </trkpt>
      <trkpt lat="46.389134" lon="10.582126">
        <time>1970-01-01T00:00:00+00:00</time>
        <ele>2842.0</ele>
      </trkpt>
      <trkpt lat="46.388766" lon="10.582027">
        <time>1970-01-01T00:00:00+00:00</time>
        <ele>2860.0</ele>
      </trkpt>
      <trkpt lat="46.388618" lon="10.582368">
        <time>1970-01-01T00:00:00+00:00</time>
        <ele>2867.0</ele>
      </trkpt>
      <trkpt lat="46.388475" lon="10.582094">
        <time>1970-01-01T00:00:00+00:00</time>
        <ele>2875.0</ele>
      </trkpt>
      <trkpt lat="46.387515" lon="10.584115">
        <time>1970-01-01T00:00:00+00:00</time>
        <ele>2927.0</ele>
      </trkpt>
      <trkpt lat="46.386561" lon="10.584404">
        <time>1970-01-01T00:00:00+00:00</time>
        <ele>2960.0</ele>
      </trkpt>
      <trkpt lat="46.385698" lon="10.586084">
        <time>1970-01-01T00:00:00+00:00</time>
        <ele>3007.0</ele>
      </trkpt>
      <trkpt lat="46.385106" lon="10.58615">
        <time>1970-01-01T00:00:00+00:00</time>
        <ele>3022.0</ele>
      </trkpt>
      <trkpt lat="46.383809" lon="10.585102">
        <time>1970-01-01T00:00:00+00:00</time>
        <ele>3064.0</ele>
      </trkpt>
      <trkpt lat="46.383387" lon="10.584429">
        <time>1970-01-01T00:00:00+00:00</time>
        <ele>3084.0</ele>
      </trkpt>
      <trkpt lat="46.38349" lon="10.584066">
        <time>1970-01-01T00:00:00+00:00</time>
        <ele>3090.0</ele>
      </trkpt>
      <trkpt lat="46.383298" lon="10.58346">
        <time>1970-01-01T00:00:00+00:00</time>
        <ele>3109.0</ele>
      </trkpt>
      <trkpt lat="46.382858" lon="10.582794">
        <time>1970-01-01T00:00:00+00:00</time>
        <ele>3127.0</ele>
      </trkpt>
      <trkpt lat="46.382857" lon="10.579396">
        <time>1970-01-01T00:00:00+00:00</time>
        <ele>3197.0</ele>
      </trkpt>
      <trkpt lat="46.383019" lon="10.57861">
        <time>1970-01-01T00:00:00+00:00</time>
        <ele>3210.0</ele>
      </trkpt>
      <trkpt lat="46.382667" lon="10.578338">
        <time>1970-01-01T00:00:00+00:00</time>
        <ele>3220.0</ele>
      </trkpt>
      <trkpt lat="46.382761" lon="10.577984">
        <time>1970-01-01T00:00:00+00:00</time>
        <ele>3224.0</ele>
      </trkpt>
      <trkpt lat="46.383276" lon="10.577734">
        <time>1970-01-01T00:00:00+00:00</time>
        <ele>3232.0</ele>
      </trkpt>
      <trkpt lat="46.383028" lon="10.577212">
        <time>1970-01-01T00:00:00+00:00</time>
        <ele>3254.0</ele>
      </trkpt>
      <trkpt lat="46.383215" lon="10.576939">
        <time>1970-01-01T00:00:00+00:00</time>
        <ele>3263.0</ele>
      </trkpt>
      <trkpt lat="46.382041" lon="10.576333">
        <time>1970-01-01T00:00:00+00:00</time>
        <ele>3301.0</ele>
      </trkpt>
      <trkpt lat="46.381851" lon="10.575543">
        <time>1970-01-01T00:00:00+00:00</time>
        <ele>3330.0</ele>
      </trkpt>
      <trkpt lat="46.38148" lon="10.575686">
        <time>1970-01-01T00:00:00+00:00</time>
        <ele>3344.0</ele>
      </trkpt>
      <trkpt lat="46.381585" lon="10.57551">
        <time>1970-01-01T00:00:00+00:00</time>
        <ele>3343.0</ele>
      </trkpt>
      <trkpt lat="46.381066" lon="10.574298">
        <time>1970-01-01T00:00:00+00:00</time>
        <ele>3395.0</ele>
      </trkpt>
      <trkpt lat="46.380959" lon="10.574535">
        <time>1970-01-01T00:00:00+00:00</time>
        <ele>3400.0</ele>
      </trkpt>
      <trkpt lat="46.380437" lon="10.573463">
        <time>1970-01-01T00:00:00+00:00</time>
        <ele>3447.0</ele>
      </trkpt>
      <trkpt lat="46.379721" lon="10.574084">
        <time>1970-01-01T00:00:00+00:00</time>
        <ele>3483.0</ele>
      </trkpt>
      <trkpt lat="46.378269" lon="10.572688">
        <time>1970-01-01T00:00:00+00:00</time>
        <ele>3528.0</ele>
      </trkpt>
      <trkpt lat="46.378055" lon="10.571933">
        <time>1970-01-01T00:00:00+00:00</time>
        <ele>3543.0</ele>
      </trkpt>
      <trkpt lat="46.37816" lon="10.571144">
        <time>1970-01-01T00:00:00+00:00</time>
        <ele>3563.0</ele>
      </trkpt>
      <trkpt lat="46.377518" lon="10.569901">
        <time>1970-01-01T00:00:00+00:00</time>
        <ele>3596.0</ele>
      </trkpt>
      <trkpt lat="46.377974" lon="10.569124">
        <time>1970-01-01T00:00:00+00:00</time>
        <ele>3616.0</ele>
      </trkpt>
      <trkpt lat="46.377772" lon="10.567092">
        <time>1970-01-01T00:00:00+00:00</time>
        <ele>3650.0</ele>
      </trkpt>
      <trkpt lat="46.377982" lon="10.568067">
        <time>1970-01-01T00:00:00+00:00</time>
        <ele>3639.0</ele>
      </trkpt>
      <trkpt lat="46.377856" lon="10.568213">
        <time>1970-01-01T00:00:00+00:00</time>
        <ele>3632.0</ele>
      </trkpt>
      <trkpt lat="46.377982" lon="10.56967">
        <time>1970-01-01T00:00:00+00:00</time>
        <ele>3599.0</ele>
      </trkpt>
      <trkpt lat="46.37731" lon="10.570117">
        <time>1970-01-01T00:00:00+00:00</time>
        <ele>3594.0</ele>
      </trkpt>
      <trkpt lat="46.377628" lon="10.570873">
        <time>1970-01-01T00:00:00+00:00</time>
        <ele>3575.0</ele>
      </trkpt>
      <trkpt lat="46.377909" lon="10.570918">
        <time>1970-01-01T00:00:00+00:00</time>
        <ele>3571.0</ele>
      </trkpt>
      <trkpt lat="46.377616" lon="10.571496">
        <time>1970-01-01T00:00:00+00:00</time>
        <ele>3558.0</ele>
      </trkpt>
      <trkpt lat="46.378202" lon="10.572908">
        <time>1970-01-01T00:00:00+00:00</time>
        <ele>3524.0</ele>
      </trkpt>
      <trkpt lat="46.377934" lon="10.573426">
        <time>1970-01-01T00:00:00+00:00</time>
        <ele>3515.0</ele>
      </trkpt>
      <trkpt lat="46.37799" lon="10.574281">
        <time>1970-01-01T00:00:00+00:00</time>
        <ele>3501.0</ele>
      </trkpt>
      <trkpt lat="46.378816" lon="10.577341">
        <time>1970-01-01T00:00:00+00:00</time>
        <ele>3444.0</ele>
      </trkpt>
      <trkpt lat="46.37899" lon="10.579474">
        <time>1970-01-01T00:00:00+00:00</time>
        <ele>3423.0</ele>
      </trkpt>
      <trkpt lat="46.378478" lon="10.58251">
        <time>1970-01-01T00:00:00+00:00</time>
        <ele>3397.0</ele>
      </trkpt>
      <trkpt lat="46.379016" lon="10.583622">
        <time>1970-01-01T00:00:00+00:00</time>
        <ele>3342.0</ele>
      </trkpt>
      <trkpt lat="46.378957" lon="10.584025">
        <time>1970-01-01T00:00:00+00:00</time>
        <ele>3341.0</ele>
      </trkpt>
      <trkpt lat="46.379181" lon="10.584177">
        <time>1970-01-01T00:00:00+00:00</time>
        <ele>3318.0</ele>
      </trkpt>
      <trkpt lat="46.379351" lon="10.585532">
        <time>1970-01-01T00:00:00+00:00</time>
        <ele>3270.0</ele>
      </trkpt>
      <trkpt lat="46.379457" lon="10.585767">
        <time>1970-01-01T00:00:00+00:00</time>
        <ele>3252.0</ele>
      </trkpt>
      <trkpt lat="46.380458" lon="10.585967">
        <time>1970-01-01T00:00:00+00:00</time>
        <ele>3172.0</ele>
      </trkpt>
      <trkpt lat="46.380627" lon="10.58564">
        <time>1970-01-01T00:00:00+00:00</time>
        <ele>3168.0</ele>
      </trkpt>
      <trkpt lat="46.380904" lon="10.585664">
        <time>1970-01-01T00:00:00+00:00</time>
        <ele>3151.0</ele>
      </trkpt>
      <trkpt lat="46.381941" lon="10.586449">
        <time>1970-01-01T00:00:00+00:00</time>
        <ele>3077.0</ele>
      </trkpt>
      <trkpt lat="46.381407" lon="10.585825">
        <time>1970-01-01T00:00:00+00:00</time>
        <ele>3116.0</ele>
      </trkpt>
      <trkpt lat="46.382183" lon="10.586115">
        <time>1970-01-01T00:00:00+00:00</time>
        <ele>3073.0</ele>
      </trkpt>
      <trkpt lat="46.382158" lon="10.585867">
        <time>1970-01-01T00:00:00+00:00</time>
        <ele>3078.0</ele>
      </trkpt>
      <trkpt lat="46.382293" lon="10.58592">
        <time>1970-01-01T00:00:00+00:00</time>
        <ele>3071.0</ele>
      </trkpt>
      <trkpt lat="46.382541" lon="10.586211">
        <time>1970-01-01T00:00:00+00:00</time>
        <ele>3055.0</ele>
      </trkpt>
      <trkpt lat="46.382332" lon="10.586252">
        <time>1970-01-01T00:00:00+00:00</time>
        <ele>3064.0</ele>
      </trkpt>
      <trkpt lat="46.382495" lon="10.586106">
        <time>1970-01-01T00:00:00+00:00</time>
        <ele>3059.0</ele>
      </trkpt>
      <trkpt lat="46.383971" lon="10.587358">
        <time>1970-01-01T00:00:00+00:00</time>
        <ele>3009.0</ele>
      </trkpt>
      <trkpt lat="46.38334" lon="10.586597">
        <time>1970-01-01T00:00:00+00:00</time>
        <ele>3024.0</ele>
      </trkpt>
      <trkpt lat="46.383399" lon="10.587277">
        <time>1970-01-01T00:00:00+00:00</time>
        <ele>3017.0</ele>
      </trkpt>
      <trkpt lat="46.382801" lon="10.587372">
        <time>1970-01-01T00:00:00+00:00</time>
        <ele>3032.0</ele>
      </trkpt>
      <trkpt lat="46.382692" lon="10.587771">
        <time>1970-01-01T00:00:00+00:00</time>
        <ele>3031.0</ele>
      </trkpt>
      <trkpt lat="46.384821" lon="10.589892">
        <time>1970-01-01T00:00:00+00:00</time>
        <ele>2974.0</ele>
      </trkpt>
      <trkpt lat="46.38531" lon="10.590093">
        <time>1970-01-01T00:00:00+00:00</time>
        <ele>2969.0</ele>
      </trkpt>
      <trkpt lat="46.385559" lon="10.589887">
        <time>1970-01-01T00:00:00+00:00</time>
        <ele>2968.0</ele>
      </trkpt>
      <trkpt lat="46.38573" lon="10.591335">
        <time>1970-01-01T00:00:00+00:00</time>
        <ele>2951.0</ele>
      </trkpt>
      <trkpt lat="46.386247" lon="10.591906">
        <time>1970-01-01T00:00:00+00:00</time>
        <ele>2941.0</ele>
      </trkpt>
      <trkpt lat="46.387288" lon="10.59254">
        <time>1970-01-01T00:00:00+00:00</time>
        <ele>2915.0</ele>
      </trkpt>
      <trkpt lat="46.389635" lon="10.593303">
        <time>1970-01-01T00:00:00+00:00</time>
        <ele>2855.0</ele>
      </trkpt>
      <trkpt lat="46.391634" lon="10.594665">
        <time>1970-01-01T00:00:00+00:00</time>
        <ele>2822.0</ele>
      </trkpt>
      <trkpt lat="46.391742" lon="10.593734">
        <time>1970-01-01T00:00:00+00:00</time>
        <ele>2805.0</ele>
      </trkpt>
      <trkpt lat="46.392374" lon="10.593966">
        <time>1970-01-01T00:00:00+00:00</time>
        <ele>2789.0</ele>
      </trkpt>
      <trkpt lat="46.392382" lon="10.593261">
        <time>1970-01-01T00:00:00+00:00</time>
        <ele>2771.0</ele>
      </trkpt>
      <trkpt lat="46.393431" lon="10.591398">
        <time>1970-01-01T00:00:00+00:00</time>
        <ele>2712.0</ele>
      </trkpt>
      <trkpt lat="46.394854" lon="10.590241">
        <time>1970-01-01T00:00:00+00:00</time>
        <ele>2681.0</ele>
      </trkpt>
      <trkpt lat="46.395428" lon="10.589157">
        <time>1970-01-01T00:00:00+00:00</time>
        <ele>2671.0</ele>
      </trkpt>
      <trkpt lat="46.396437" lon="10.588649">
        <time>1970-01-01T00:00:00+00:00</time>
        <ele>2654.0</ele>
      </trkpt>
      <trkpt lat="46.398103" lon="10.587029">
        <time>1970-01-01T00:00:00+00:00</time>
        <ele>2617.0</ele>
      </trkpt>
      <trkpt lat="46.399432" lon="10.586976">
        <time>1970-01-01T00:00:00+00:00</time>
        <ele>2611.0</ele>
      </trkpt>
      <trkpt lat="46.400381" lon="10.587653">
        <time>1970-01-01T00:00:00+00:00</time>
        <ele>2594.0</ele>
      </trkpt>
      <trkpt lat="46.401313" lon="10.587732">
        <time>1970-01-01T00:00:00+00:00</time>
        <ele>2561.0</ele>
      </trkpt>
      <trkpt lat="46.402008" lon="10.587308">
        <time>1970-01-01T00:00:00+00:00</time>
        <ele>2550.0</ele>
      </trkpt>
      <trkpt lat="46.402886" lon="10.586148">
        <time>1970-01-01T00:00:00+00:00</time>
        <ele>2538.0</ele>
      </trkpt>
      <trkpt lat="46.40543" lon="10.584804">
        <time>1970-01-01T00:00:00+00:00</time>
        <ele>2504.0</ele>
      </trkpt>
      <trkpt lat="46.407244" lon="10.584946">
        <time>1970-01-01T00:00:00+00:00</time>
        <ele>2499.0</ele>
      </trkpt>
      <trkpt lat="46.408579" lon="10.586372">
        <time>1970-01-01T00:00:00+00:00</time>
        <ele>2488.0</ele>
      </trkpt>
      <trkpt lat="46.40978" lon="10.585607">
        <time>1970-01-01T00:00:00+00:00</time>
        <ele>2458.0</ele>
      </trkpt>
      <trkpt lat="46.410893" lon="10.585322">
        <time>1970-01-01T00:00:00+00:00</time>
        <ele>2444.0</ele>
      </trkpt>
      <trkpt lat="46.412221" lon="10.584354">
        <time>1970-01-01T00:00:00+00:00</time>
        <ele>2430.0</ele>
      </trkpt>
      <trkpt lat="46.413676" lon="10.582098">
        <time>1970-01-01T00:00:00+00:00</time>
        <ele>2382.0</ele>
      </trkpt>
      <trkpt lat="46.413494" lon="10.580527">
        <time>1970-01-01T00:00:00+00:00</time>
        <ele>2338.0</ele>
      </trkpt>
      <trkpt lat="46.413041" lon="10.579326">
        <time>1970-01-01T00:00:00+00:00</time>
        <ele>2316.0</ele>
      </trkpt>
      <trkpt lat="46.413473" lon="10.578319">
        <time>1970-01-01T00:00:00+00:00</time>
        <ele>2305.0</ele>
      </trkpt>
      <trkpt lat="46.41406" lon="10.578115">
        <time>1970-01-01T00:00:00+00:00</time>
        <ele>2299.0</ele>
      </trkpt>
      <trkpt lat="46.415361" lon="10.576575">
        <time>1970-01-01T00:00:00+00:00</time>
        <ele>2269.0</ele>
      </trkpt>
      <trkpt lat="46.415909" lon="10.574635">
        <time>1970-01-01T00:00:00+00:00</time>
        <ele>2234.0</ele>
      </trkpt>
      <trkpt lat="46.416471" lon="10.574083">
        <time>1970-01-01T00:00:00+00:00</time>
        <ele>2227.0</ele>
      </trkpt>
      <trkpt lat="46.41668" lon="10.572958">
        <time>1970-01-01T00:00:00+00:00</time>
        <ele>2215.0</ele>
      </trkpt>
      <trkpt lat="46.417542" lon="10.571314">
        <time>1970-01-01T00:00:00+00:00</time>
        <ele>2203.0</ele>
      </trkpt>
      <trkpt lat="46.41854" lon="10.56786">
        <time>1970-01-01T00:00:00+00:00</time>
        <ele>2189.0</ele>
      </trkpt>
      <trkpt lat="46.419292" lon="10.566567">
        <time>1970-01-01T00:00:00+00:00</time>
        <ele>2182.0</ele>
      </trkpt>
      <trkpt lat="46.419853" lon="10.564726">
        <time>1970-01-01T00:00:00+00:00</time>
        <ele>2178.0</ele>
      </trkpt>
      <trkpt lat="46.419405" lon="10.564584">
        <time>1970-01-01T00:00:00+00:00</time>
        <ele>2172.0</ele>
      </trkpt>
      <trkpt lat="46.419371" lon="10.563731">
        <time>1970-01-01T00:00:00+00:00</time>
        <ele>2169.0</ele>
      </trkpt>
      <trkpt lat="46.420035" lon="10.562268">
        <time>1970-01-01T00:00:00+00:00</time>
        <ele>2163.0</ele>
      </trkpt>
      <trkpt lat="46.419723" lon="10.560513">
        <time>1970-01-01T00:00:00+00:00</time>
        <ele>2147.0</ele>
      </trkpt>
      <trkpt lat="46.419731" lon="10.558181">
        <time>1970-01-01T00:00:00+00:00</time>
        <ele>2144.0</ele>
      </trkpt>
    </trkseg>
  </trk>
</gpx>
